TimeEDT,TemperatureF,Dew PointF,Humidity,Sea Level PressureIn,VisibilityMPH,Wind Direction,Wind SpeedMPH,Gust SpeedMPH,PrecipitationIn,Events,Conditions,WindDirDegrees,DateUTC
12:56 AM,62.1,60.1,93,29.93,6.0,South,3.5,-,N/A,,Clear,190,2012-10-06 04:56:00
1:56 AM,63.0,61.0,93,29.92,5.0,Calm,Calm,-,N/A,,Clear,0,2012-10-06 05:56:00
2:56 AM,64.9,63.0,93,29.90,6.0,Calm,Calm,-,N/A,,Clear,0,2012-10-06 06:56:00
3:56 AM,64.9,62.1,90,29.90,8.0,SSW,3.5,-,N/A,,Clear,210,2012-10-06 07:56:00
4:56 AM,63.0,61.0,93,29.89,7.0,South,3.5,-,N/A,,Clear,190,2012-10-06 08:56:00
5:56 AM,63.0,60.1,90,29.89,9.0,South,3.5,-,N/A,,Clear,170,2012-10-06 09:56:00
6:56 AM,63.0,60.1,90,29.88,8.0,South,3.5,-,N/A,,Clear,190,2012-10-06 10:56:00
7:56 AM,66.9,62.1,84,29.88,10.0,South,5.8,-,N/A,,Clear,190,2012-10-06 11:56:00
8:56 AM,70.0,63.0,78,29.87,10.0,SSW,9.2,-,N/A,,Clear,200,2012-10-06 12:56:00
9:56 AM,73.0,62.1,68,29.86,10.0,SW,15.0,23.0,0.01,,Clear,220,2012-10-06 13:56:00
10:56 AM,73.0,62.1,68,29.85,10.0,SW,10.4,23.0,N/A,,Clear,220,2012-10-06 14:56:00
11:56 AM,73.9,63.0,68,29.83,10.0,SSW,13.8,-,N/A,,Clear,210,2012-10-06 15:56:00
12:56 PM,75.9,63.0,64,29.81,10.0,SSW,17.3,23.0,N/A,,Clear,200,2012-10-06 16:56:00
2:56 PM,73.0,64.0,73,29.78,10.0,SSW,17.3,26.5,N/A,,Scattered Clouds,200,2012-10-06 18:56:00
3:56 PM,72.0,64.9,78,29.78,10.0,SSW,12.7,21.9,N/A,,Overcast,210,2012-10-06 19:56:00
4:56 PM,71.1,64.9,81,29.78,10.0,SW,12.7,19.6,N/A,,Overcast,220,2012-10-06 20:56:00
5:56 PM,72.0,64.0,76,29.81,10.0,West,13.8,19.6,N/A,,Overcast,270,2012-10-06 21:56:00
6:56 PM,64.9,53.1,65,29.86,10.0,WNW,10.4,-,N/A,,Scattered Clouds,300,2012-10-06 22:56:00
7:56 PM,63.0,51.1,65,29.89,10.0,NW,10.4,-,N/A,,Partly Cloudy,320,2012-10-06 23:56:00
8:56 PM,60.1,46.0,60,29.93,10.0,WNW,10.4,-,N/A,,Clear,300,2012-10-07 00:56:00
9:56 PM,57.9,45.0,62,29.95,10.0,NW,10.4,-,N/A,,Clear,310,2012-10-07 01:56:00
10:56 PM,55.9,44.1,64,29.98,10.0,NW,8.1,-,N/A,,Clear,320,2012-10-07 02:56:00
11:56 PM,54.0,44.1,69,29.98,10.0,NNW,5.8,-,N/A,,Clear,330,2012-10-07 03:56:00